[[{"header":{"parameterUnit":"m.s-1","parameterCategory":1,"la1":30.2991,"la2":30.254,"lo1":-89.0895,"lo2":-89.0444,"dy":0.0017,"dx":0.0017,"nx":28,"ny":28,"refTime":"2025-12-05T09:00:00:Z","depth":0,"parameterNumber":2,"parameterNumberName":"U-component_of_WINDS"},"data":[0,0,0,0,0,0,0,0,0,0,0,0,0,0,0,0,0,0,0,0,0,0,0,0,0,0,0,0,0,0,0,0,0,0,0,0,0,0,0,0,0,0,0,0,0,0,0,0,0,0,0,0,0,0,0,0,0,0,-2.9999,-3.0,0,-3.0104,-3.0105,-3.0106,-3.0107,-3.0106,-3.0105,-3.0103,-3.021,-3.0214,-3.0218,0,0,0,0,0,0,0,0,0,0,0,0,0,-2.98,-2.9804,-2.9999,-3.0001,-3.0002,-3.0104,-3.0105,-3.0107,-3.0108,-3.0106,-3.0104,-3.0103,-3.0209,-3.0214,-3.0218,0,0,0,0,0,0,0,0,0,0,0,0,0,-2.9894,-2.9805,-2.9999,-3.0015,-3.0017,-3.0103,-3.0105,-3.0107,-3.0108,-3.0106,-3.0104,-3.0102,-3.0207,-3.0213,-3.0219,-3.0297,0,0,-3.0238,-3.024,0,0,0,0,0,0,0,0,-2.9889,-2.9901,-3.0011,-3.0014,-3.0017,-3.0091,-3.0074,-3.0171,-3.0108,-3.0073,-3.0103,-3.0101,-3.0172,-3.0181,-3.0205,-3.0302,-3.0306,-3.0238,-3.0242,-3.0245,-3.0246,0,0,0,0,0,0,0,-2.9882,-2.9897,-3.0041,-3.0013,-3.0016,-3.0016,-3.0028,-3.0092,-3.0133,-3.0076,-3.0077,-3.0089,-3.0173,-3.0199,-3.0207,-3.0308,-3.0238,-3.0244,-3.0247,-3.025,-3.0473,-3.0475,0,0,0,0,0,0,-2.9873,-2.9891,-3.0037,-3.0044,-2.9946,-3.0022,-3.0034,-3.0069,-3.0132,-3.014,-3.0091,-3.0089,-3.0189,-3.02,-3.0211,-3.0305,-3.0245,-3.025,-3.0254,-3.0471,-3.0474,-3.0476,0,0,0,0,0,0,-2.9868,-2.9886,-3.0033,-2.9968,-2.9987,-3.0027,-3.0066,-3.0072,-3.0098,-3.0143,-3.015,-3.011,-3.0188,-3.0202,-3.0275,-3.0309,-3.0253,-3.0259,-3.0468,-3.0472,-3.0475,-3.0494,0,0,0,0,0,0,-2.9863,-2.9884,-2.9914,-2.9968,-2.999,-3.0096,-3.0068,-3.0075,-3.0108,-3.0107,-3.0162,-3.017,-3.0188,-3.0266,-3.0281,-3.0316,-3.0263,-3.0465,-3.047,-3.0474,-3.0491,-3.0498,-3.0504,0,0,0,0,0,-2.9856,-2.9915,-2.9915,-2.9933,-3.0028,-3.0097,-3.011,-3.013,-3.0111,-3.0141,-3.017,-3.0168,-3.0303,-3.0274,-3.0291,-3.0328,-3.0463,-3.0469,-3.0473,-3.0488,-3.0496,-3.0504,0,0,0,0,0,0,-2.9863,-2.9922,-2.9923,-3.0002,-3.0045,-3.0097,-3.0136,-3.0138,-3.0187,-3.0183,-3.0206,-3.0218,-3.0291,-3.0317,-3.0283,-3.0406,-3.0381,-3.039,-3.0386,-3.0394,-3.0401,-3.0392,-3.0269,0,0,0,0,0,-2.9874,-2.9925,-2.9975,-3.004,-3.0061,-3.0095,-3.0126,-3.0138,-3.0182,-3.02,-3.0235,-3.0278,-3.033,-3.0364,-3.0415,-3.0495,-3.0507,-3.0529,-3.0536,-3.0541,-3.0548,-3.0591,-3.0602,-3.0493,-3.0493,-3.0493,0,0,-2.9897,-2.9936,-2.9967,-3.0042,-3.0076,-3.0129,-3.011,-3.0166,-3.0205,-3.0209,-3.0279,-3.0306,-3.0356,-3.0433,-3.0469,-3.0457,-3.0581,-3.0548,-3.0551,-3.0555,-3.0598,-3.0608,-3.0617,-3.0496,-3.0496,-3.0495,0,0,-2.9965,-3.0,-3.0058,-3.0093,-3.0145,-3.0167,-3.0181,-3.0234,-3.0252,-3.0323,-3.0327,-3.0374,-3.0464,-3.0499,-3.0529,-3.0611,-3.061,-3.0627,-3.0661,-3.0703,-3.0712,-3.0719,-3.0747,-3.0757,-3.0634,-3.0634,-3.0634,0,-2.9986,-3.0066,-3.0087,-3.0143,-3.0176,-3.0182,-3.0241,-3.0274,-3.034,-3.0362,-3.0349,-3.0462,-3.0496,-3.058,-3.0601,-3.0625,-3.0641,-3.062,-3.0709,-3.0717,-3.0724,-3.0751,-3.0762,-3.0636,-3.0636,-3.0636,-3.0635,0,-3.0089,-3.0144,-3.0184,-3.0248,-3.0285,-3.0343,-3.0372,-3.0408,-3.0417,-3.0441,-3.0513,-3.0555,-3.0614,-3.0635,-3.0645,-3.0721,-3.0713,-3.0704,-3.0679,-3.0736,-3.0761,-3.0772,-3.0638,-3.0638,-3.0637,-3.0637,0,0,-3.0163,-3.0238,-3.0252,-3.0281,-3.034,-3.0382,-3.044,-3.0498,-3.0528,-3.0574,-3.0622,-3.0698,-3.0691,-3.0724,-3.0738,-3.0776,-3.0837,-3.0762,-3.0764,-3.0773,-3.0923,-3.0927,-3.0939,-3.0838,-3.084,-3.0842,-3.0918,0,-3.0236,-3.0337,-3.0359,-3.0447,-3.0497,-3.0505,-3.0555,-3.0596,-3.0621,-3.0667,-3.0694,-3.0747,-3.0734,-3.0754,-3.0792,-3.0821,-3.0867,-3.0817,-3.0882,-3.0884,-3.0867,-3.0953,-3.0958,-3.1028,-3.0928,-3.093,-3.0931,0,-3.0334,-3.0382,-3.0475,-3.0527,-3.0549,-3.0593,-3.0648,-3.0693,-3.074,-3.0755,-3.0793,-3.0803,-3.0863,-3.0837,-3.092,-3.0885,-3.0913,-3.0932,-3.0935,-3.094,-3.0909,-3.0958,-3.1051,-3.1061,-3.0948,-3.0947,-3.0945,0,-3.0376,-3.0464,-3.0531,-3.0556,-3.0618,-3.0649,-3.0677,-3.0723,-3.0756,-3.0804,-3.0826,-3.0881,-3.091,-3.0952,-3.0976,-3.0955,-3.1057,-3.1033,-3.107,-3.107,-3.109,-3.1088,-3.1186,-3.1111,-3.1111,-3.1111,-3.1111,0,-3.0454,-3.051,-3.0551,-3.0592,-3.0655,-3.0679,-3.0741,-3.0769,-3.0809,-3.0856,-3.0867,-3.091,-3.094,-3.0988,-3.1008,-3.1072,-3.1086,-3.11,-3.1104,-3.1097,-3.1095,-3.1115,-3.111,-3.1114,-3.1113,-3.1113,-3.1112,0,-3.0511,-3.054,-3.0613,-3.0667,-3.0682,-3.0726,-3.0772,-3.0812,-3.0837,-3.0896,-3.0911,-3.095,-3.1007,-3.1036,-3.1107,-3.112,-3.1192,-3.1195,-3.1176,-3.1177,-3.1212,-3.1208,-3.1325,-3.1341,-3.1257,-3.1258,-3.1259,0,-3.0557,-3.0601,-3.0659,-3.0691,-3.0719,-3.077,-3.0804,-3.0831,-3.0866,-3.0923,-3.0956,-3.1014,-3.1061,-3.1151,-3.1186,-3.124,-3.1242,-3.128,-3.125,-3.1243,-3.1241,-3.1237,-3.1241,-3.1284,-3.1285,-3.1285,-3.1286,0,-3.0636,-3.0649,-3.0698,-3.0752,-3.0792,-3.0837,-3.088,-3.0905,-3.0939,-3.0978,-3.1036,-3.1073,-3.1145,-3.1201,-3.1259,-3.1287,-3.1292,-3.1295,-3.1307,-3.1299,-3.1286,-3.1292,-3.1188,-3.1292,-3.1291,-3.1291,-3.1291,-3.129,-3.0688,-3.0727,-3.0774,-3.0828,-3.0863,-3.0904,-3.0944,-3.0974,-3.1023,-3.1084,-3.1097,-3.1158,-3.1205,-3.1282,-3.1312,-3.1361,-3.1353,-3.1369,-3.1373,-3.1376,-3.1377,-3.128,-3.1371,-3.1371,-3.1371,-3.1371,-3.1371,0,-3.0766,-3.0797,-3.0847,-3.0907,-3.095,-3.0952,-3.1,-3.1035,-3.1089,-3.1132,-3.1178,-3.1245,-3.13,-3.134,-3.1396,-3.1427,-3.1431,-3.1441,-3.1438,-3.1444,-3.1382,-3.1366,-3.1437,-3.1437,-3.1437,-3.1437,-3.1437,-3.1437,-3.0812,-3.0877,-3.0895,-3.0978,-3.1009,-3.1069,-3.1096,-3.1133,-3.1168,-3.1242,-3.1288,-3.1313,-3.1355,-3.1415,-3.1465,-3.1476,-3.1495,-3.1505,-3.1515,-3.1456,-3.1448,-3.1442,-3.1426,-3.1509,-3.1509,-3.1573,-3.1574,-3.1574]},{"header":{"parameterUnit":"m.s-1","parameterCategory":1,"la1":30.2991,"la2":30.254,"lo1":-89.0895,"lo2":-89.0444,"dy":0.0017,"dx":0.0017,"nx":28,"ny":28,"refTime":"2025-12-05T09:00:00:Z","depth":0,"parameterNumber":3,"parameterNumberName":"V-component_of_WINDS"},"data":[0,0,0,0,0,0,0,0,0,0,0,0,0,0,0,0,0,0,0,0,0,0,0,0,0,0,0,0,0,0,0,0,0,0,0,0,0,0,0,0,0,0,0,0,0,0,0,0,0,0,0,0,0,0,0,0,0,0,1.5829,1.583,0,1.5907,1.5908,1.5909,1.5882,1.588,1.5879,1.5877,1.5957,1.596,1.5964,0,0,0,0,0,0,0,0,0,0,0,0,0,1.5658,1.5661,1.5829,1.583,1.5831,1.5907,1.5908,1.5909,1.5882,1.588,1.5878,1.5876,1.5956,1.596,1.5965,0,0,0,0,0,0,0,0,0,0,0,0,0,1.5734,1.5663,1.5829,1.5827,1.5827,1.5907,1.5908,1.591,1.5883,1.588,1.5878,1.5875,1.5954,1.596,1.5965,1.6051,0,0,1.5982,1.5985,0,0,0,0,0,0,0,0,1.573,1.574,1.5826,1.5827,1.5828,1.5882,1.5877,1.5957,1.5884,1.5862,1.5877,1.5874,1.5934,1.5941,1.5962,1.6055,1.6058,1.5983,1.5986,1.5989,1.599,0,0,0,0,0,0,0,1.5725,1.5737,1.586,1.5827,1.5829,1.5823,1.583,1.5892,1.5911,1.5864,1.5862,1.5871,1.5934,1.5956,1.5963,1.606,1.5983,1.5988,1.5991,1.5993,1.623,1.6233,0,0,0,0,0,0,1.5719,1.5733,1.5858,1.5862,1.5771,1.5828,1.5837,1.5867,1.5911,1.5915,1.5873,1.587,1.5948,1.5957,1.5966,1.6071,1.5988,1.5994,1.5997,1.6227,1.6231,1.6234,0,0,0,0,0,0,1.5715,1.573,1.5854,1.5797,1.5812,1.5833,1.5868,1.587,1.5892,1.5918,1.5922,1.5892,1.5946,1.5958,1.6031,1.6073,1.5996,1.6001,1.6224,1.6228,1.6232,1.6281,0,0,0,0,0,0,1.571,1.5729,1.5761,1.5798,1.5816,1.5918,1.5871,1.5874,1.5902,1.5898,1.5937,1.5941,1.5945,1.6023,1.6036,1.608,1.6006,1.622,1.6226,1.6231,1.6275,1.6286,1.6296,0,0,0,0,0,1.5704,1.5772,1.5763,1.5778,1.5857,1.592,1.593,1.5934,1.5906,1.5939,1.5956,1.594,1.6066,1.603,1.6045,1.6091,1.6217,1.6224,1.623,1.6271,1.6284,1.6295,0,0,0,0,0,0,1.5739,1.5776,1.5767,1.5848,1.5881,1.5915,1.5957,1.5947,1.5989,1.5983,1.5986,1.5995,1.607,1.6088,1.6047,1.6178,1.6138,1.6148,1.6163,1.6176,1.6186,1.618,1.601,0,0,0,0,0,1.5756,1.5804,1.5834,1.5903,1.592,1.5936,1.5964,1.5964,1.5998,1.6012,1.6034,1.6068,1.6116,1.6147,1.6192,1.6278,1.6287,1.6317,1.6327,1.6335,1.6344,1.6392,1.6407,1.6255,1.6255,1.6255,0,0,1.5792,1.5818,1.5848,1.5911,1.5936,1.5987,1.5948,1.6002,1.604,1.602,1.609,1.6108,1.6146,1.6227,1.6263,1.6244,1.6388,1.6344,1.635,1.6354,1.6401,1.6415,1.6428,1.626,1.6259,1.6258,0,0,1.5883,1.5907,1.5968,1.5995,1.6034,1.6045,1.6059,1.6096,1.6107,1.6177,1.6164,1.6209,1.6291,1.6319,1.6344,1.6448,1.6435,1.6463,1.6515,1.6563,1.6575,1.6585,1.6623,1.6637,1.6471,1.6472,1.6472,0,1.5922,1.5997,1.6,1.6057,1.6085,1.607,1.6132,1.6158,1.621,1.623,1.6208,1.6312,1.6336,1.6424,1.6449,1.647,1.6487,1.6458,1.6573,1.6583,1.6593,1.663,1.6644,1.6475,1.6474,1.6474,1.6474,0,1.6044,1.6097,1.6141,1.6193,1.6226,1.6285,1.6298,1.6331,1.6329,1.6343,1.6416,1.6445,1.6497,1.6517,1.6515,1.6605,1.6592,1.6571,1.6531,1.6611,1.6645,1.6659,1.6479,1.6478,1.6477,1.6476,0,0,1.6158,1.6212,1.6228,1.6252,1.6296,1.6336,1.6396,1.6446,1.6476,1.6513,1.6563,1.6634,1.6615,1.6644,1.6645,1.6686,1.6769,1.6661,1.6662,1.6681,1.6871,1.6887,1.6903,1.6761,1.6763,1.6766,1.6869,0,1.6253,1.6357,1.6362,1.6456,1.6505,1.6493,1.6545,1.6577,1.6592,1.6636,1.6652,1.6703,1.6674,1.6691,1.6732,1.675,1.6807,1.6743,1.6808,1.681,1.6799,1.6921,1.6937,1.7033,1.6882,1.6884,1.6886,0,1.6377,1.6419,1.6519,1.6557,1.6578,1.6624,1.6672,1.6715,1.6752,1.676,1.6793,1.6789,1.685,1.6808,1.6894,1.685,1.6877,1.689,1.6894,1.69,1.6853,1.6931,1.7064,1.7078,1.6907,1.6905,1.6904,0,1.6452,1.6533,1.6603,1.6624,1.667,1.6703,1.6724,1.6759,1.679,1.6832,1.6852,1.6901,1.6928,1.6966,1.6976,1.6944,1.7061,1.702,1.707,1.707,1.7095,1.7094,1.7234,1.7112,1.7112,1.7112,1.7111,0,1.6557,1.6619,1.6637,1.668,1.675,1.6756,1.6824,1.6843,1.6874,1.6922,1.6914,1.6959,1.6968,1.7015,1.7023,1.7094,1.7105,1.7114,1.7115,1.7115,1.7114,1.7133,1.7127,1.7116,1.7115,1.7114,1.7113,0,1.6652,1.6666,1.6742,1.678,1.6791,1.6841,1.6873,1.6915,1.693,1.699,1.7004,1.7027,1.7082,1.7095,1.7161,1.7166,1.725,1.7244,1.7237,1.7237,1.7287,1.7282,1.7445,1.7467,1.733,1.7331,1.7332,0,1.6718,1.6765,1.6809,1.684,1.6863,1.6913,1.6945,1.6953,1.6987,1.7034,1.7071,1.7126,1.7169,1.7258,1.7281,1.7331,1.7328,1.7381,1.7335,1.7334,1.7329,1.7327,1.7332,1.739,1.7391,1.7392,1.7393,0,1.6835,1.6841,1.6887,1.6936,1.6975,1.7014,1.7052,1.7078,1.7092,1.713,1.7187,1.7221,1.7289,1.7343,1.7395,1.7417,1.7408,1.7408,1.7423,1.7423,1.7417,1.7422,1.7262,1.7404,1.7403,1.7402,1.7402,1.7401,1.6918,1.696,1.6998,1.705,1.7079,1.7115,1.7157,1.7177,1.7225,1.7281,1.7283,1.7345,1.7383,1.7451,1.7476,1.7525,1.7509,1.753,1.7535,1.754,1.7545,1.7409,1.7535,1.7534,1.7534,1.7534,1.7534,0,1.7035,1.7059,1.7107,1.7161,1.7203,1.7191,1.7233,1.7268,1.7323,1.736,1.7403,1.7469,1.7523,1.755,1.7603,1.7638,1.7635,1.7651,1.7649,1.7655,1.7556,1.7539,1.7653,1.7652,1.7652,1.7652,1.7652,1.7652,1.7101,1.7172,1.7182,1.7269,1.7292,1.7353,1.7378,1.7412,1.7441,1.7515,1.756,1.7577,1.761,1.7666,1.7715,1.7722,1.7742,1.7761,1.7766,1.7673,1.7661,1.765,1.7633,1.7765,1.7765,1.786,1.7861,1.7861]}]]